GW0374 Weather Reports


time (UTC)temp
C
wind
direction
speed
KPH
gust
KPH
rain 1hr
cm
rain 24hr
cm
rain mn
cm
humidity
%
barometer
mb
20260510210003 19 142 0.0 3.2 0.00 0.00 0.00 80 1014.6
20260510205503 19 270 0.0 3.2 0.00 0.00 0.00 80 1014.6
20260510205004 19 293 0.0 4.8 0.00 0.00 0.00 79 1014.6
20260510204503 20 290 0.0 4.8 0.00 0.00 0.00 77 1014.5
20260510204004 20 230 0.0 6.4 0.00 0.00 0.00 75 1014.4
20260510203504 20 232 1.6 9.7 0.00 0.00 0.00 75 1014.4
20260510203003 20 226 1.6 9.7 0.00 0.00 0.00 75 1014.4
20260510202503 20 219 3.2 12.9 0.00 0.00 0.00 74 1014.3
20260510202003 20 220 3.2 12.9 0.00 0.00 0.00 74 1014.1
20260510201524 20 222 3.2 9.7 0.00 0.00 0.00 74 1014.0
20260510201003 20 226 1.6 8.0 0.00 0.00 0.00 74 1013.9
20260510200503 20 225 1.6 9.7 0.00 0.00 0.00 72 1013.8
20260510200004 21 215 1.6 9.7 0.00 0.00 0.00 72 1013.6
20260510195503 21 160 1.6 11.3 0.00 0.00 0.00 72 1013.6
20260510195003 21 102 1.6 11.3 0.00 0.00 0.00 71 1013.5
20260510194503 21 164 1.6 9.7 0.00 0.00 0.00 71 1013.5
20260510194004 21 211 1.6 9.7 0.00 0.00 0.00 71 1013.5
20260510193504 21 221 3.2 9.7 0.00 0.00 0.00 71 1013.3
20260510193025 21 227 1.6 9.7 0.00 0.00 0.00 69 1013.2
20260510192503 21 247 1.6 8.0 0.00 0.00 0.00 69 1013.3
20260510192004 21 250 1.6 8.0 0.00 0.00 0.00 66 1013.3
20260510191503 22 228 1.6 9.7 0.00 0.00 0.00 65 1013.2
20260510191024 22 220 1.6 9.7 0.00 0.00 0.00 64 1013.1
20260510190524 22 198 1.6 8.0 0.00 0.00 0.00 62 1013.1
20260510190003 22 207 1.6 8.0 0.00 0.00 0.00 61 1012.9
20260510185503 23 169 1.6 8.0 0.00 0.00 0.00 58 1012.8
20260510185003 23 134 3.2 9.7 0.00 0.00 0.00 56 1012.7
20260510184525 23 132 3.2 9.7 0.00 0.00 0.00 55 1012.5
20260510184024 23 133 3.2 9.7 0.00 0.00 0.00 54 1012.6
20260510183503 23 127 0.0 4.8 0.00 0.00 0.00 54 1012.6
20260510183004 24 122 1.6 4.8 0.00 0.00 0.00 54 1012.7
20260510182524 24 140 3.2 11.3 0.00 0.00 0.00 54 1012.5
20260510182003 24 141 6.4 14.5 0.00 0.00 0.00 54 1012.4
20260510181503 24 139 9.7 14.5 0.00 0.00 0.00 54 1012.3
20260510181004 23 136 9.7 17.7 0.00 0.00 0.00 54 1012.3
20260510180524 23 135 12.9 25.7 0.00 0.00 0.00 54 1012.4
20260510180004 23 136 14.5 25.7 0.00 0.00 0.00 54 1012.3
20260510175525 23 136 14.5 24.1 0.00 0.00 0.00 54 1012.4
20260510175003 24 141 12.9 24.1 0.00 0.00 0.00 52 1012.4
20260510174503 24 143 14.5 27.4 0.00 0.00 0.00 52 1012.3
20260510174003 24 141 16.1 29.0 0.00 0.00 0.00 52 1012.2
20260510173503 24 139 17.7 29.0 0.00 0.00 0.00 52 1012.2
20260510173003 24 139 17.7 30.6 0.00 0.00 0.00 52 1012.1
20260510172503 24 142 19.3 30.6 0.00 0.00 0.00 52 1012.1
20260510172024 24 142 19.3 29.0 0.00 0.00 0.00 51 1012.3
20260510171503 25 142 19.3 32.2 0.00 0.00 0.00 51 1012.1
20260510171003 25 142 17.7 32.2 0.00 0.00 0.00 48 1012.0
20260510170503 25 138 20.9 35.4 0.00 0.00 0.00 50 1011.9
20260510170030 25 138 20.9 35.4 0.00 0.00 0.00 50 1012.0
20260510165506 25 139 20.9 37.0 0.00 0.00 0.00 51 1011.8
20260510165033 25 140 22.5 37.0 0.00 0.00 0.00 51 1012.0
20260510164503 25 141 22.5 33.8 0.00 0.00 0.00 51 1012.0
20260510164003 25 140 22.5 41.8 0.00 0.00 0.00 51 1012.1
20260510163503 25 138 24.1 41.8 0.00 0.00 0.00 50 1012.1
20260510163003 25 139 22.5 35.4 0.00 0.00 0.00 50 1012.2
20260510162524 25 141 22.5 35.4 0.00 0.00 0.00 50 1012.3
20260510162003 25 141 19.3 35.4 0.00 0.00 0.00 50 1012.1
20260510161504 25 139 22.5 40.2 0.00 0.00 0.00 50 1012.1
20260510161003 25 139 24.1 40.2 0.00 0.00 0.00 50 1012.2
20260510160524 25 137 22.5 41.8 0.00 0.00 0.00 50 1012.2
20260510160004 25 137 20.9 41.8 0.00 0.00 0.00 51 1012.3
20260510155504 25 138 19.3 35.4 0.00 0.00 0.00 50 1012.1
20260510155024 25 137 19.3 35.4 0.00 0.00 0.00 50 1012.1
20260510154524 25 134 17.7 35.4 0.00 0.00 0.00 51 1012.1
20260510154003 25 134 16.1 29.0 0.00 0.00 0.00 50 1012.2
20260510153503 25 136 16.1 27.4 0.00 0.00 0.00 51 1012.2
20260510153025 25 137 19.3 37.0 0.00 0.00 0.00 51 1012.4
20260510152503 25 135 20.9 37.0 0.00 0.00 0.00 51 1012.4
20260510152004 25 133 20.9 35.4 0.00 0.00 0.00 50 1012.5
20260510151503 25 135 20.9 37.0 0.00 0.00 0.00 50 1012.6
20260510151003 25 137 20.9 37.0 0.00 0.00 0.00 50 1012.5
20260510150504 26 139 19.3 37.0 0.00 0.00 0.00 50 1012.7
20260510150025 26 140 17.7 32.2 0.00 0.00 0.00 50 1012.6
20260510145503 26 139 17.7 33.8 0.00 0.00 0.00 50 1012.8
20260510145003 25 139 19.3 38.6 0.00 0.00 0.00 50 1012.8
20260510144503 26 133 17.7 38.6 0.00 0.00 0.00 50 1012.8
20260510144003 26 132 17.7 30.6 0.00 0.00 0.00 48 1012.8
20260510143504 26 137 17.7 32.2 0.00 0.00 0.00 48 1012.8
20260510143004 26 137 19.3 40.2 0.00 0.00 0.00 50 1012.9
20260510142503 25 138 19.3 40.2 0.00 0.00 0.00 50 1013.0
20260510142003 25 137 20.9 40.2 0.00 0.00 0.00 51 1013.0
20260510141504 25 136 20.9 40.2 0.00 0.00 0.00 51 1012.9
20260510141003 26 137 20.9 37.0 0.00 0.00 0.00 51 1013.0
20260510140503 26 136 20.9 38.6 0.00 0.00 0.00 50 1013.2
20260510140024 26 137 19.3 38.6 0.00 0.00 0.00 51 1013.1
20260510135503 26 136 22.5 37.0 0.00 0.00 0.00 50 1013.2
20260510135003 26 136 22.5 37.0 0.00 0.00 0.00 51 1013.3
20260510134503 26 138 20.9 32.2 0.00 0.00 0.00 50 1013.3
20260510134003 26 138 19.3 35.4 0.00 0.00 0.00 50 1013.5
20260510133503 26 137 16.1 41.8 0.00 0.00 0.00 48 1013.4
20260510133003 26 134 17.7 41.8 0.00 0.00 0.00 50 1013.4
20260510132524 26 135 19.3 35.4 0.00 0.00 0.00 50 1013.4
20260510132024 26 137 19.3 33.8 0.00 0.00 0.00 50 1013.6
20260510131503 26 135 17.7 33.8 0.00 0.00 0.00 51 1013.6
20260510131024 26 137 17.7 37.0 0.00 0.00 0.00 51 1013.6
20260510130504 26 139 20.9 40.2 0.00 0.00 0.00 50 1013.7
20260510130004 26 139 19.3 40.2 0.00 0.00 0.00 50 1013.7
20260510125504 26 137 17.7 35.4 0.00 0.00 0.00 51 1013.8
20260510125004 26 139 19.3 35.4 0.00 0.00 0.00 50 1013.9
20260510124504 26 139 20.9 35.4 0.00 0.00 0.00 51 1014.0
20260510124003 26 135 17.7 35.4 0.00 0.00 0.00 50 1013.9
20260510123503 26 137 19.3 33.8 0.00 0.00 0.00 52 1014.0
20260510123003 26 140 20.9 33.8 0.00 0.00 0.00 51 1014.1
20260510122503 26 138 14.5 30.6 0.00 0.00 0.00 50 1014.1
20260510122003 26 134 14.5 37.0 0.00 0.00 0.00 52 1014.1
20260510121504 26 138 20.9 37.0 0.00 0.00 0.00 51 1014.2
20260510121003 26 135 17.7 35.4 0.00 0.00 0.00 51 1014.2
20260510120503 26 137 14.5 29.0 0.00 0.00 0.00 52 1014.3
20260510120025 26 139 16.1 29.0 0.00 0.00 0.00 51 1014.3
20260510115503 26 137 16.1 29.0 0.00 0.00 0.00 51 1014.3
20260510115003 26 138 14.5 27.4 0.00 0.00 0.00 51 1014.3
20260510114503 26 136 11.3 25.7 0.00 0.00 0.00 51 1014.5
20260510114003 27 137 6.4 25.7 0.00 0.00 0.00 47 1014.5
20260510113503 26 137 6.4 19.3 0.00 0.00 0.00 50 1014.6
20260510113003 26 136 9.7 24.1 0.00 0.00 0.00 51 1014.7
20260510112504 26 137 12.9 24.1 0.00 0.00 0.00 52 1014.8
20260510112003 26 137 12.9 24.1 0.00 0.00 0.00 52 1014.9
20260510111503 26 132 9.7 24.1 0.00 0.00 0.00 51 1015.2
20260510111003 26 127 4.8 16.1 0.00 0.00 0.00 54 1015.3
20260510110503 25 131 4.8 19.3 0.00 0.00 0.00 54 1015.2
20260510110003 25 129 6.4 20.9 0.00 0.00 0.00 51 1015.3
20260510105524 26 142 4.8 20.9 0.00 0.00 0.00 51 1015.4
20260510105003 26 245 1.6 8.0 0.00 0.00 0.00 54 1015.4
20260510104504 26 260 1.6 6.4 0.00 0.00 0.00 54 1015.4
20260510104003 25 295 1.6 8.0 0.00 0.00 0.00 56 1015.5
20260510103504 25 293 3.2 16.1 0.00 0.00 0.00 58 1015.6
20260510103003 25 290 4.8 16.1 0.00 0.00 0.00 59 1015.6
20260510102503 25 302 1.6 9.7 0.00 0.00 0.00 59 1015.6
20260510102003 24 341 1.6 4.8 0.00 0.00 0.00 62 1015.7
20260510101503 24 30 1.6 4.8 0.00 0.00 0.00 62 1015.8
20260510101003 24 98 1.6 4.8 0.00 0.00 0.00 62 1015.8
20260510100503 24 51 1.6 6.4 0.00 0.00 0.00 64 1015.7
20260510100004 23 12 1.6 8.0 0.00 0.00 0.00 64 1015.9
20260510095503 23 23 1.6 8.0 0.00 0.00 0.00 66 1015.9
20260510095003 23 23 1.6 8.0 0.00 0.00 0.00 66 1015.8
20260510094504 23 353 1.6 8.0 0.00 0.00 0.00 66 1015.9
20260510094024 22 26 0.0 8.0 0.00 0.00 0.00 66 1016.0
20260510093503 22 43 1.6 8.0 0.00 0.00 0.00 68 1016.1
20260510093003 22 23 1.6 9.7 0.00 0.03 0.00 68 1016.1
20260510092503 22 353 1.6 9.7 0.00 0.05 0.00 69 1016.1
20260510092003 22 349 0.0 3.2 0.00 0.05 0.00 69 1016.2
20260510091524 22 340 1.6 6.4 0.00 0.05 0.00 71 1016.2
20260510091003 21 317 1.6 6.4 0.00 0.05 0.00 71 1016.3
20260510090525 21 305 1.6 4.8 0.00 0.05 0.00 72 1016.3
20260510090003 21 304 1.6 6.4 0.00 0.05 0.00 72 1016.3
20260510085503 21 310 0.0 6.4 0.00 0.05 0.00 72 1016.2
20260510085003 21 325 0.0 3.2 0.00 0.05 0.00 74 1016.3
20260510084504 20 72 0.0 3.2 0.00 0.05 0.00 75 1016.4
20260510084003 20 10 0.0 4.8 0.00 0.05 0.00 75 1016.7
20260510083503 20 38 1.6 4.8 0.00 0.05 0.00 77 1016.7
20260510083003 20 73 0.0 4.8 0.00 0.05 0.00 75 1016.7
20260510082503 20 268 0.0 3.2 0.00 0.05 0.00 75 1016.7
20260510082003 19 265 0.0 3.2 0.00 0.05 0.00 77 1016.7
20260510081503 18 276 0.0 4.8 0.00 0.05 0.00 77 1016.8
20260510081003 18 282 0.0 4.8 0.00 0.05 0.00 77 1016.9
20260510080504 18 316 0.0 4.8 0.00 0.05 0.00 77 1016.8
20260510080024 18 350 0.0 4.8 0.00 0.05 0.00 77 1016.8
20260510075503 17 331 0.0 4.8 0.00 0.05 0.00 79 1016.9
20260510075003 17 341 0.0 4.8 0.00 0.05 0.00 79 1016.7
20260510074503 17 29 0.0 4.8 0.00 0.05 0.00 79 1016.7
20260510074004 17 33 0.0 4.8 0.00 0.05 0.00 77 1016.7
20260510073503 17 88 0.0 1.6 0.00 0.05 0.00 80 1016.8
20260510073024 17 94 0.0 1.6 0.00 0.05 0.00 79 1016.8
20260510072504 17 0 0.0 1.6 0.00 0.05 0.00 79 1017.0
20260510072004 17 0 0.0 1.6 0.00 0.05 0.00 77 1017.0